CAPE
242 133 60 0 6 0 0 0 0 0 140 316 386 471 356 160 119 176 226 278 263 235 221 237 97 61 70 91 104 95 405 822 965 925 938 995 1087 1286 1410 1594 1649 1717 2003 1995
0 0 0 0 0 0 0 0 0 0 391 293 470 378 529 331 235 143 170 203 255 258 201 215 272 192 125 136 141 166 456 845 1088 1010 1200 1344 1391 1432 1519 1715 1783 1868 1978 2215
0 0 0 0 0 0 0 0 0 0 420 468 462 332 627 363 261 167 97 158 190 279 217 152 157 226 150 95 122 195 405 804 1065 1153 1295 1400 1340 1388 1398 1428 1475 1824 2024 2072
0 0 0 0 0 0 0 0 0 33 266 3 321 0 112 419 390 228 185 106 95 144 143 144 117 117 145 147 88 67 213 574 906 1244 1485 1869 1472 1493 1432 1580 1493 1720 1979 2103
0 0 0 0 0 0 0 0 28 266 38 181 342 199 175 247 694 668 493 348 190 111 136 77 62 80 80 90 114 39 200 723 1106 1409 1778 1408 1599 1368 1482 1562 1540 1782 1781 1978
0 0 0 0 0 0 0 0 0 0 0 0 0 391 64 128 17 391 717 668 549 372 219 121 99 33 15 19 42 40 121 505 1179 1350 1293 1831 2094 1715 1511 1472 1429 1328 1596 1176
0 0 0 0 0 0 0 0 0 0 0 0 0 363 319 75 95 258 692 714 759 594 489 376 305 145 74 16 0 8 66 370 925 1440 1474 1845 2088 2014 1933 1634 1396 1412 1268 1055
0 0 0 0 0 0 0 0 0 0 0 15 1 72 135 608 813 204 270 642 557 685 678 571 494 402 198 60 37 74 164 351 429 1244 1693 1927 2029 1249 1475 1429 1333 1194 713 1045
0 0 0 0 0 0 0 0 0 0 0 17 1 78 250 1029 767 1564 1256 1187 1262 1243 1037 991 603 478 482 305 349 291 714 853 840 780 1288 1519 1657 1673 1611 2078 1632 1399 1198 1115
0 0 0 0 0 0 0 0 0 0 2 106 113 247 387 1361 1279 1186 1157 1062 1263 1322 1171 1054 470 440 560 472 480 383 553 991 907 728 1104 1216 1347 1491 1503 1602 1668 1650 1393 1425
0 0 0 0 0 0 0 0 0 0 0 58 186 265 212 1441 1251 1281 1307 1284 1433 1371 1385 1374 1232 946 767 641 553 542 689 866 957 1044 1194 1386 1389 1358 1438 1402 1621 1812 1757 1597
0 0 0 0 0 0 0 0 0 0 0 0 4 162 0 134 503 1198 1485 1448 1405 1334 1554 1489 1424 1262 1044 1040 990 979 987 1041 996 1101 1406 1223 1373 1389 1277 1417 1492 1631 1803 1904
0 0 0 0 0 0 0 0 0 0 0 0 21 127 2 350 878 624 1653 1578 1509 1444 1527 1375 1264 1108 992 878 896 1086 1385 1373 1187 1287 1220 1296 1283 1379 1388 1461 1528 1553 1699 1751
0 0 0 0 0 0 0 0 0 0 0 0 0 0 15 0 465 744 697 1543 1569 1393 1414 1411 1167 1026 865 902 950 1168 1244 1377 1479 1361 1263 1263 1462 1463 1457 1618 1844 1845 2119 2227
0 0 0 0 0 0 0 0 0 0 0 0 0 0 0 218 974 964 560 705 1633 1587 1519 1234 1117 1053 1080 967 928 887 803 1098 1612 1755 1856 1805 1815 2022 1818 1962 2081 2114 2269 2365
0 0 0 0 0 0 0 0 0 0 0 0 0 0 10 1132 1289 1386 901 1270 1676 1568 1462 1290 1348 1223 1091 993 888 763 824 796 767 893 1384 1766 1584 1762 1953 1769 1357 1227 1622 1663
0 0 0 0 0 0 0 0 0 0 0 0 0 9 1033 1319 1443 1577 1136 1408 1796 1594 1548 1243 1326 1650 1634 1532 1122 1292 1297 1251 1380 1426 1530 1334 1259 2005 1784 1305 890 614 444 204
0 0 0 0 0 0 0 0 0 0 0 0 0 652 1305 1105 825 970 1362 1632 1060 1011 1044 1265 1403 1499 1378 1387 1321 826 556 1262 1281 1392 1365 1495 1593 1608 1789 1257 738 593 376 391
0 0 0 0 0 0 0 0 0 58 120 0 155 827 589 200 184 335 396 679 696 565 632 952 1283 1163 904 604 540 453 364 429 624 342 429 771 1089 1325 1546 1379 1207 944 495 308
0 0 0 0 0 0 0 0 0 113 0 42 191 315 141 0 54 9 7 160 245 281 86 239 678 543 394 431 164 0 0 0 0 0 20 183 545 792 1021 1111 979 845 508 152
0 0 0 0 0 0 0 0 0 0 0 106 17 96 0 0 0 0 0 3 1 0 0 328 195 0 8 0 0 0 0 0 0 0 0 0 114 408 543 694 982 735 384 124
0 0 0 0 0 0 0 0 0 0 0 78 5 0 0 0 0 0 0 0 0 0 0 0 0 0 0 0 0 0 0 0 0 0 0 0 0 0 51 476 543 346 290 262
0 0 0 0 0 0 0 0 0 0 0 0 5 0 0 0 0 0 0 0 0 0 0 0 0 0 0 0 0 0 0 0 0 0 0 0 0 2 3 7 14 123 246 308
0 0 0 0 0 0 0 0 0 0 0 0 0 0 0 0 0 0 0 0 0 0 0 0 0 0 0 0 0 0 0 0 0 0 0 0 0 0 0 0 2 2 0 122
0 0 0 0 0 0 0 0 0 0 0 0 0 0 0 0 0 0 0 0 0 0 0 0 0 0 0 0 0 0 0 1 0 0 0 0 0 0 3 0 0 0 1 2
0 0 0 0 0 0 0 0 0 0 0 0 0 0 0 0 0 0 0 0 0 0 0 0 0 0 0 0 0 0 0 2 3 1 0 1 0 2 7 9 5 0 0 0
CIN
-310 -165 -95 -0 -228 -0 -0 -0 -0 -0 -254 -212 -198 -236 -355 -405 -361 -301 -269 -251 -191 -151 -125 -102 -112 -109 -96 -102 -113 -122 -83 -67 -58 -53 -42 -32 -34 -30 -26 -25 -34 -39 -29 -23
-0 -0 -0 -0 -0 -0 -0 -0 -0 -0 -262 -198 -245 -181 -366 -408 -345 -340 -316 -323 -263 -204 -194 -185 -153 -147 -176 -167 -172 -167 -112 -82 -76 -64 -60 -44 -41 -54 -40 -32 -32 -31 -33 -21
-0 -0 -0 -0 -0 -0 -0 -0 -0 -0 -217 -237 -168 -137 -322 -450 -420 -409 -395 -326 -319 -284 -279 -293 -274 -228 -222 -262 -254 -220 -167 -112 -103 -88 -71 -73 -88 -83 -70 -59 -39 -31 -31 -30
-0 -0 -0 -0 -0 -0 -0 -0 -0 -111 -92 -18 -233 -0 -233 -364 -417 -438 -397 -390 -359 -358 -346 -332 -355 -342 -313 -285 -324 -328 -250 -152 -127 -102 -70 -54 -54 -45 -45 -42 -44 -29 -31 -23
-0 -0 -0 -0 -0 -0 -0 -0 -220 -202 -160 -129 -136 -56 -64 -364 -307 -321 -362 -340 -341 -390 -402 -385 -414 -407 -383 -348 -335 -399 -312 -177 -117 -106 -74 -82 -67 -64 -64 -82 -73 -43 -39 -29
-0 -0 -0 -0 -0 -0 -0 -0 -0 -0 -0 -0 -0 -103 -63 -125 -224 -232 -258 -276 -323 -306 -388 -417 -416 -423 -490 -471 -433 -417 -398 -267 -167 -141 -130 -76 -56 -74 -96 -98 -73 -56 -57 -98
-0 -0 -0 -0 -0 -0 -0 -0 -0 -0 -0 -0 -0 -134 -68 -251 -243 -255 -160 -204 -261 -316 -343 -403 -416 -441 -480 -539 -0 -509 -469 -342 -232 -174 -159 -123 -90 -83 -102 -93 -67 -57 -60 -76
-0 -0 -0 -0 -0 -0 -0 -0 -0 -0 -0 -39 -22 -69 -59 -226 -232 -286 -243 -223 -262 -295 -313 -346 -381 -427 -451 -491 -523 -492 -457 -384 -308 -220 -189 -169 -135 -139 -144 -122 -68 -65 -52 -37
-0 -0 -0 -0 -0 -0 -0 -0 -0 -0 -0 -67 -17 -144 -153 -148 -163 -140 -133 -134 -170 -237 -281 -278 -323 -357 -430 -446 -449 -445 -352 -361 -309 -277 -230 -205 -182 -169 -146 -128 -139 -75 -76 -52
-0 -0 -0 -0 -0 -0 -0 -0 -0 -0 -10 -10 -39 -71 -26 -63 -65 -124 -93 -114 -178 -272 -308 -359 -385 -337 -400 -431 -446 -448 -393 -313 -264 -230 -213 -193 -204 -207 -172 -152 -155 -110 -91 -99
-0 -0 -0 -0 -0 -0 -0 -0 -0 -0 -0 -11 -2 -4 -142 -57 -96 -96 -127 -198 -270 -288 -327 -404 -428 -441 -455 -453 -452 -379 -353 -302 -259 -235 -203 -206 -207 -210 -205 -157 -151 -133 -104 -101
-0 -0 -0 -0 -0 -0 -0 -0 -0 -0 -0 -0 -0 -9 -0 -262 -181 -182 -140 -223 -325 -425 -414 -441 -406 -387 -394 -385 -370 -309 -269 -251 -248 -228 -229 -240 -228 -204 -199 -186 -154 -128 -117 -117
-0 -0 -0 -0 -0 -0 -0 -0 -0 -0 -0 -0 -14 -14 -292 -271 -227 -249 -151 -201 -325 -368 -416 -431 -379 -426 -434 -367 -347 -265 -213 -194 -188 -205 -207 -188 -229 -214 -194 -169 -150 -132 -115 -101
-0 -0 -0 -0 -0 -0 -0 -0 -0 -0 -0 -0 -0 -0 -153 -0 -214 -254 -270 -246 -282 -362 -384 -371 -360 -421 -435 -400 -338 -266 -208 -198 -178 -165 -188 -201 -183 -168 -164 -147 -150 -123 -119 -102
-0 -0 -0 -0 -0 -0 -0 -0 -0 -0 -0 -0 -0 -0 -0 -178 -274 -360 -453 -353 -264 -276 -285 -338 -320 -358 -371 -365 -372 -352 -315 -261 -163 -135 -116 -117 -118 -108 -126 -141 -139 -148 -113 -118
-0 -0 -0 -0 -0 -0 -0 -0 -0 -0 -0 -0 -0 -0 -334 -329 -377 -329 -340 -255 -230 -264 -329 -321 -305 -302 -287 -324 -379 -403 -377 -361 -373 -304 -208 -146 -157 -120 -94 -122 -183 -202 -202 -208
-0 -0 -0 -0 -0 -0 -0 -0 -0 -0 -0 -0 -0 -38 -227 -264 -280 -305 -323 -277 -251 -267 -248 -254 -258 -248 -275 -267 -319 -274 -275 -293 -257 -218 -178 -177 -172 -67 -70 -137 -226 -284 -310 -344
-0 -0 -0 -0 -0 -0 -0 -0 -0 -0 -0 -0 -81 -187 -191 -253 -362 -359 -324 -219 -268 -287 -269 -248 -225 -225 -257 -237 -229 -316 -362 -216 -196 -172 -186 -158 -105 -83 -54 -122 -214 -244 -254 -224
-0 -0 -0 -0 -0 -0 -0 -0 -0 -171 -160 -0 -166 -213 -273 -356 -322 -302 -406 -339 -267 -286 -257 -224 -210 -230 -273 -295 -276 -271 -285 -250 -190 -259 -232 -187 -129 -94 -76 -87 -97 -113 -171 -208
-0 -0 -0 -0 -0 -0 -0 -0 -0 -184 -9 -264 -217 -215 -278 -0 -105 -216 -432 -370 -296 -295 -422 -319 -248 -262 -276 -278 -375 -0 -0 -0 -0 -0 -352 -241 -132 -102 -81 -76 -92 -96 -136 -221
-0 -0 -0 -0 -0 -0 -0 -0 -0 -0 -0 -196 -267 -200 -0 -0 -0 -0 -0 -336 -140 -0 -0 -299 -253 -0 -341 -0 -0 -0 -0 -0 -0 -0 -0 -0 -192 -71 -53 -37 -22 -54 -115 -205
-0 -0 -0 -0 -0 -0 -0 -0 -0 -0 -0 -127 -292 -0 -0 -0 -0 -0 -0 -0 -0 -0 -0 -0 -0 -0 -0 -0 -0 -0 -0 -0 -0 -0 -0 -0 -0 -0 -265 -40 -12 -61 -89 -141
-0 -0 -0 -0 -0 -0 -0 -0 -0 -0 -0 -4 -219 -0 -0 -0 -0 -0 -0 -0 -0 -0 -0 -0 -0 -0 -0 -0 -0 -0 -0 -0 -0 -0 -0 -0 -0 -0 -0 -0 -25 -219 -99 -69
-0 -0 -0 -0 -0 -0 -0 -0 -0 -0 -0 -0 -0 -0 -0 -0 -0 -0 -0 -0 -0 -0 -0 -0 -0 -0 -0 -0 -0 -0 -0 -0 -0 -0 -0 -0 -0 -0 -0 -0 -0 -0 -0 -108
-0 -0 -0 -0 -0 -0 -0 -0 -0 -0 -0 -0 -0 -0 -0 -0 -0 -0 -0 -0 -0 -0 -0 -0 -0 -0 -0 -0 -0 -0 -0 -0 -0 -0 -0 -0 -0 -0 -0 -0 -0 -0 -0 -1
-0 -0 -0 -0 -0 -0 -0 -0 -0 -0 -0 -0 -0 -0 -0 -0 -0 -0 -0 -0 -0 -0 -0 -0 -0 -0 -0 -0 -0 -0 -0 -0 -0 -0 -0 -0 -0 -0 -0 -0 -0 -0 -0 -0
Wind_Speed
2 4 9 13 9 12 10 11 14 12 1 2 3 7 14 14 12 13 14 16 18 20 19 17 18 18 17 15 15 16 13 12 9 7 6 7 8 7 6 5 6 7 7 8
1 10 14 7 7 9 9 10 7 6 2 1 2 3 13 17 15 16 17 17 19 18 18 19 20 20 19 17 16 16 14 13 12 9 7 5 6 5 5 5 6 6 7 8
7 10 2 8 11 4 6 7 3 4 2 2 6 3 4 9 7 13 15 16 18 20 21 21 22 22 20 19 18 17 15 15 13 12 8 5 3 2 3 5 5 6 8 9
9 9 10 9 10 7 7 4 3 3 3 4 6 4 1 4 13 13 15 16 17 19 18 19 20 22 23 22 17 17 16 15 13 13 10 12 9 9 8 7 6 6 9 10
4 4 5 7 8 5 3 5 4 4 2 2 3 4 4 3 7 15 16 17 18 20 22 23 24 24 23 20 20 18 16 15 14 14 13 11 12 9 7 6 7 8 7 9
13 1 5 5 2 3 9 5 5 4 1 4 4 4 1 3 5 3 15 18 20 21 21 22 21 21 20 20 20 19 16 17 16 15 16 15 14 12 9 9 7 6 6 5
5 2 2 4 3 4 4 3 2 1 2 3 3 4 4 10 5 4 6 14 18 18 18 19 21 21 20 20 20 17 15 16 16 17 16 17 16 14 14 12 9 8 7 8
4 2 3 2 2 2 2 2 2 3 3 3 3 2 4 7 6 2 2 1 3 8 12 16 19 19 19 18 19 18 14 13 16 16 17 15 15 12 10 12 10 8 8 9
3 1 1 3 2 3 4 1 3 6 0 3 3 2 2 3 5 4 5 6 6 3 4 9 14 18 18 17 17 15 13 12 14 17 13 14 14 15 13 13 11 9 9 7
2 3 1 2 2 9 2 6 2 1 0 1 0 3 3 3 5 4 8 9 8 8 6 7 1 9 12 12 12 13 14 14 13 14 13 12 14 15 14 12 13 12 11 10
3 2 1 2 6 5 1 3 6 4 3 1 4 3 3 7 3 2 3 4 6 6 7 8 7 6 4 6 8 11 11 12 12 12 12 14 14 15 14 14 14 14 12 11
2 1 3 2 1 3 2 3 1 3 5 2 2 2 2 2 2 1 1 1 2 2 8 8 10 10 9 8 7 8 10 12 13 13 13 14 13 13 14 15 15 12 13 11
6 1 2 4 4 4 3 3 4 4 1 3 3 2 3 3 2 1 1 4 3 3 8 8 11 10 8 7 6 6 8 9 11 12 13 13 13 14 15 13 12 12 11 11
4 3 3 2 1 1 1 1 2 3 2 4 4 3 4 3 4 5 3 2 4 4 7 8 9 8 6 4 3 3 4 7 9 9 10 9 11 11 11 12 13 13 12 12
1 4 3 2 2 2 2 4 5 6 5 7 4 7 2 2 7 7 6 2 4 4 6 7 7 5 2 1 1 3 4 2 3 6 7 8 7 8 9 10 11 12 13 14
1 4 3 2 3 5 6 9 9 10 6 10 8 11 2 3 2 2 2 7 7 6 7 7 6 6 6 5 3 4 5 5 3 2 5 7 7 8 11 12 13 12 12 13
3 6 4 9 2 4 8 13 12 6 7 7 8 3 4 3 3 4 5 8 10 9 8 8 9 7 8 8 5 5 6 6 6 5 5 4 7 9 10 10 10 12 10 6
5 4 2 7 2 11 5 4 6 6 6 9 4 6 5 5 4 5 4 9 10 8 7 6 6 7 8 9 7 5 6 6 6 7 8 8 5 6 8 10 12 12 10 11
6 5 4 5 7 7 7 5 8 8 3 7 10 10 9 7 6 5 3 4 7 7 6 6 6 7 7 8 6 6 6 6 7 9 11 12 12 11 9 9 10 9 8 10
6 3 5 4 5 6 5 10 6 6 5 13 12 14 14 9 5 4 6 4 5 4 5 4 6 7 7 6 5 8 8 7 6 7 8 10 11 11 11 11 12 10 9 10
6 4 8 7 7 6 9 4 10 9 1 19 18 16 15 7 3 6 9 6 4 5 6 7 9 9 8 7 7 8 6 7 4 5 6 7 8 11 13 13 11 11 11 10
11 8 5 4 7 9 9 9 10 6 1 18 18 17 14 5 5 9 8 5 4 4 6 7 8 8 7 8 8 8 9 10 8 5 4 7 8 7 7 9 9 9 9 9
8 8 5 9 5 0 10 5 2 4 3 10 18 18 14 9 9 9 7 6 4 3 5 6 5 5 6 7 8 8 9 10 10 10 10 9 8 8 8 8 9 8 9 9
5 3 5 5 7 8 10 10 9 6 9 10 14 14 14 14 12 11 8 6 5 4 4 4 3 6 7 8 7 5 6 8 9 10 11 10 10 9 8 7 7 7 7 7
1 9 8 4 4 5 8 11 8 7 7 12 12 11 14 13 12 10 8 6 5 5 4 5 6 6 8 9 9 8 7 6 6 7 8 10 9 9 9 8 8 8 9 8
5 5 7 6 5 3 2 6 8 10 13 13 13 12 10 12 12 9 6 5 6 4 4 4 6 7 9 8 9 9 8 7 7 7 6 6 8 8 9 8 9 8 12 12
Wind_Direction
67 285 277 296 274 276 292 294 290 285 28 223 258 152 174 175 178 174 181 185 192 193 190 192 203 209 214 219 220 218 216 208 197 199 212 226 230 226 227 228 236 236 222 214
254 275 291 273 279 270 262 272 269 278 32 244 11 294 167 180 193 188 187 189 197 198 197 202 206 210 216 221 222 217 218 213 206 205 209 212 197 220 224 219 237 232 220 210
248 268 274 290 300 255 240 235 218 289 19 79 307 136 148 195 214 203 206 204 200 204 203 205 208 213 214 218 217 218 215 212 211 209 205 189 169 187 206 219 227 231 229 217
253 277 259 267 272 224 309 235 273 212 251 346 348 353 99 173 206 215 213 210 209 208 214 214 214 217 216 217 212 214 214 215 212 203 211 215 221 234 231 229 220 222 231 233
223 237 222 265 268 197 328 34 64 104 113 296 41 289 57 137 186 219 219 218 214 209 213 213 211 215 217 216 217 213 206 205 208 203 212 215 230 235 236 217 226 224 223 242
264 285 247 243 263 201 147 84 76 87 290 251 11 273 113 19 331 234 210 216 216 215 216 224 219 218 216 212 214 213 206 204 198 200 207 216 225 222 225 225 226 225 213 225
308 200 228 235 221 127 186 180 279 199 177 5 351 210 8 333 348 252 185 210 216 221 221 222 222 218 216 214 211 210 205 206 199 200 202 210 220 219 224 227 226 213 218 214
306 120 18 18 316 3 59 320 315 21 341 42 147 22 33 333 319 256 182 256 215 228 231 236 232 226 222 216 210 206 200 210 202 201 210 209 211 219 223 223 226 217 227 227
203 276 350 42 15 316 135 117 48 111 114 239 352 192 251 28 122 124 90 93 61 29 299 269 235 224 224 211 208 200 201 201 208 213 210 214 215 216 218 220 216 215 222 222
149 287 50 347 201 69 323 123 183 60 267 88 12 273 97 146 142 49 38 20 8 7 17 24 351 226 218 208 200 192 202 205 207 215 212 219 222 220 223 217 219 216 218 209
157 286 30 253 28 354 175 171 70 105 334 245 176 170 180 188 180 68 16 348 349 354 33 41 46 63 116 159 179 195 201 205 206 211 216 216 215 217 214 220 219 215 213 213
55 112 304 43 3 297 324 46 357 241 165 44 331 145 63 238 188 152 326 360 4 348 59 63 66 72 87 115 146 176 195 202 207 212 209 215 216 219 217 224 218 218 216 204
169 63 304 171 182 175 44 52 81 87 147 178 260 100 100 108 168 59 129 135 87 61 79 75 72 65 65 84 109 145 189 207 215 209 217 225 220 213 218 220 219 211 214 213
133 128 256 284 219 68 179 118 93 356 274 145 249 319 168 183 305 316 310 136 92 50 66 70 79 76 70 72 92 139 198 214 218 228 229 232 231 227 225 218 207 211 206 202
264 195 205 236 240 229 261 253 211 254 271 245 281 239 260 304 306 312 294 186 124 79 57 55 61 76 107 123 306 320 344 360 289 241 238 233 243 230 222 208 205 200 204 209
38 163 186 249 210 226 263 261 253 257 250 250 262 270 251 329 306 343 279 152 129 82 72 71 52 41 45 49 16 359 332 325 302 292 263 238 235 219 211 204 199 195 192 192
180 153 184 259 206 266 250 246 246 196 202 216 221 273 163 118 88 72 116 111 106 99 95 81 61 45 38 37 37 32 2 355 2 344 321 286 262 241 232 219 206 209 210 229
167 182 204 274 212 257 279 293 245 251 239 229 252 164 155 131 109 83 97 123 118 115 100 84 78 67 51 50 55 17 14 22 10 354 343 342 327 282 256 225 225 231 237 250
212 153 181 242 231 293 268 200 168 198 223 209 188 157 153 147 144 110 112 127 121 105 98 82 70 71 61 64 67 69 47 16 9 350 334 325 322 318 310 286 269 258 252 259
131 176 210 164 223 243 260 206 177 163 248 178 178 171 166 170 180 140 159 156 153 117 94 96 79 67 63 63 73 83 78 60 27 349 323 314 303 298 297 292 292 294 287 287
160 154 201 195 234 255 258 199 161 196 273 174 185 180 172 189 34 123 147 144 127 99 83 86 80 73 61 55 61 58 66 58 21 333 324 317 304 294 289 289 285 286 288 290
191 179 186 167 214 243 156 144 198 198 137 179 180 183 179 166 139 148 148 145 121 105 98 97 98 85 62 44 40 33 18 354 351 352 338 331 327 312 301 289 287 281 279 270
209 212 192 209 211 72 200 267 242 298 202 187 184 183 185 177 172 168 164 159 155 120 85 73 72 80 76 48 33 22 3 348 345 342 344 341 329 320 320 308 300 288 271 267
217 163 202 168 192 222 239 258 255 240 228 192 184 172 175 176 171 171 172 174 162 124 104 68 45 31 31 29 30 27 6 350 343 340 341 341 335 334 316 303 294 291 285 265
278 160 172 230 260 272 236 234 235 202 178 159 154 165 170 165 172 177 186 180 163 141 107 58 32 14 9 4 1 3 358 347 341 332 336 340 335 322 313 306 303 295 284 283
195 178 198 221 194 207 179 176 182 177 174 170 157 154 167 171 172 179 185 165 155 139 97 50 23 7 0 358 350 351 349 341 328 319 323 334 333 330 322 312 307 278 267 279